Location: Celina Division
(33.3022°N, 96.7580°W)
Time: 18:47:42
(UTC+00:00)

H-2A R/B (2) - Pass Details

Date: 07 July 2022
Orbit: 428 x 34396 km, 28.9° (Epoch: 07 August)

Event Time Altitude Azimuth Distance (km) Brightness Sun altitude
Rises 06:26:24 0° 111° (ESE) 40,187 10.5 -34.1°
Reaches altitude 10° 07:45:50 10° 112° (ESE) 36,236 10.4 -31.4°
Maximum altitude 09:28:28 18° 107° (ESE) 24,753 9.9 -20.1°
Drops below altitude 10° 10:19:16 10° 91° (E) 16,066 9.5 -12.2°
Sets 10:34:17 0° 82° (E) 13,442 9.6 -9.7°
